Find Starlink 5349

NORAD ID: 56512 Int'l Des: 2023-065 Owner: SPXS Country: US Constellation: starlink operational
LEOCIRCULAR

当前视图

正在加载3D地球...

About Starlink 5349

Starlink 5349 (NORAD 56512) is a starlink constellation satellite (v1.5) launched May 14, 2023 by SPXS of US. It operates in LEO, CIRCULAR orbit with a mass of 305.00 kg.

即将过境

Passes for default location (London). Set your location on the main map for personalized predictions.

高度历史

Loading altitude history...

两行轨道根数

1 56512U 23065K 26264.00260239 .00000104 00000-0 13317-4 0 9991
2 56512 43.0014 189.1682 0001338 263.2561 96.8138 15.27577730186473
Epoch: Sep 21, 2026 • Age: 12 hours

当前状态

高度 484.8 km
远地点 / 近地点 N/A
速度 7.63 km/s
星下点 32.91°N, 148.4°E
发射日期 May 14, 2023
运行时间 3.3 years
类型 internet

技术详情

分类 Payload
质量 305.00 kg
干质量 290.00 kg
长度 0.20 m
跨度 9.00 m
形状 ? Box + pan
制造商 SPXS
平台类型 Starlink
阶段状态 In Orbit
所有者/国家 SPXS/US

Most Searched